This is the latest recevied weather packets stored in our database for station/object VR2R-13. If no packets are shown the sender has not sent any weather packets the latest 10 day(s).
| Time | Temp. | Humidity | Pressure | Rain* | Wind** | Luminosity | Snow |
|---|---|---|---|---|---|---|---|
| 1777528364 | 20° C | 81% | 915.2 hPa | 0 mm | - | - | - |
| 1777528303 | 20° C | 81% | 915.2 hPa | 0 mm | - | - | - |
| 1777528004 | 19.44° C | 82% | 915.2 hPa | 0 mm | - | - | - |
| 1777527284 | 19.44° C | 80% | 915.2 hPa | 0 mm | - | - | - |
| 1777526924 | 19.44° C | 84% | 915.3 hPa | 0 mm | - | - | - |
| 1777526564 | 18.33° C | 84% | 915.3 hPa | 0 mm | - | - | - |
| 1777526505 | 18.33° C | 84% | 915.3 hPa | 0 mm | - | - | - |
| 1777526204 | 18.33° C | 85% | 915.4 hPa | 0 mm | - | - | - |
| 1777526202 | 18.33° C | 85% | 915.4 hPa | 0 mm | - | - | - |
| 1777525902 | 17.22° C | 83% | 915.4 hPa | 0 mm | - | - | - |
| 1777525844 | 17.22° C | 84% | 915.4 hPa | 0 mm | - | - | - |
| 1777525602 | 17.22° C | 83% | 915.5 hPa | 0 mm | - | - | - |
| 1777525483 | 17.78° C | 84% | 915.5 hPa | 0 mm | - | - | - |
| 1777525302 | 17.22° C | 86% | 915.6 hPa | 0 mm | - | - | - |
| 1777525124 | 17.22° C | 85% | 915.5 hPa | 0 mm | - | - | - |
| 1777525002 | 17.22° C | 86% | 915.6 hPa | 0 mm | - | - | - |
| 1777524764 | 16.67° C | 86% | 915.6 hPa | 0 mm | - | - | - |
| 1777524702 | 16.67° C | 86% | 915.6 hPa | 0 mm | - | - | - |
| 1777524404 | 16.67° C | 86% | 915.7 hPa | 0 mm | - | - | - |
| 1777524402 | 16.67° C | 86% | 915.7 hPa | 0 mm | - | - | - |
| 1777524102 | 16.67° C | 85% | 915.7 hPa | 0 mm | - | - | - |
| 1777524043 | 16.67° C | 86% | 915.8 hPa | 0 mm | - | - | - |
| 1777523802 | 17.22° C | 85% | 915.7 hPa | 0 mm | - | - | - |
| 1777523323 | 17.22° C | 85% | 915.8 hPa | 0 mm | - | - | - |
| 1777522963 | 17.78° C | 85% | 915.7 hPa | 0 mm | - | - | - |
* Rain latest hour (hover to see other rain measurements)
** Current wind speed in m/s (hover to see current wind gust speed)